CW5752 Weather Reports


time (UTC)temp
C
wind
direction
speed
KPH
gust
KPH
rain 1hr
cm
rain 24hr
cm
rain mn
cm
humidity
%
barometer
mb
20260510003521 22 209 0.0 3.2 0.00 0.76 0.76 64 1008.7
20260510002601 23 209 0.0 3.2 0.00 0.76 0.76 62 1008.5
20260510001541 23 209 0.0 4.8 0.00 0.76 0.76 61 1008.5
20260510000516 23 209 0.0 9.7 0.00 0.76 0.76 60 1008.4
20260509235520 24 176 0.0 6.4 0.00 0.76 0.76 57 1008.4
20260509234541 25 176 0.0 9.7 0.00 0.76 0.76 57 1008.3
20260509233521 25 183 4.8 12.9 0.00 0.76 0.76 54 1008.4
20260509232541 25 179 3.2 6.4 0.00 0.76 0.76 54 1008.4
20260509231520 25 193 1.6 9.7 0.00 0.76 0.76 56 1008.4
20260509230521 25 186 3.2 9.7 0.00 0.76 0.76 55 1008.4
20260509225515 26 184 4.8 12.9 0.00 0.76 0.76 53 1008.4
20260509224520 26 223 3.2 12.9 0.00 0.76 0.76 54 1008.4
20260509223541 26 206 3.2 8.0 0.00 0.76 0.76 53 1008.3
20260509222546 26 203 1.6 11.3 0.00 0.76 0.76 52 1008.2
20260509221521 26 199 3.2 8.0 0.00 0.76 0.76 51 1008.1
20260509220520 26 210 1.6 14.5 0.00 0.76 0.76 53 1008.2
20260509215516 26 186 3.2 9.7 0.00 0.76 0.76 54 1008.1
20260509214515 26 189 3.2 9.7 0.00 0.76 0.76 55 1008.1
20260509213520 26 198 3.2 11.3 0.00 0.76 0.76 54 1008.1
20260509212520 26 205 3.2 9.7 0.00 0.76 0.76 57 1008.1
20260509211520 26 232 1.6 11.3 0.00 0.76 0.76 56 1008.2
20260509210539 26 237 3.2 12.9 0.00 0.76 0.76 55 1008.3
20260509205520 26 177 3.2 12.9 0.00 0.76 0.76 56 1008.2
20260509204515 26 268 3.2 11.3 0.00 0.76 0.76 57 1008.5
20260509203521 26 209 1.6 9.7 0.00 0.76 0.76 55 1008.7
20260509202520 25 264 4.8 12.9 0.00 0.76 0.76 56 1008.8
20260509201521 25 235 4.8 12.9 0.00 0.76 0.76 58 1009.0
20260509200520 25 240 3.2 16.1 0.00 0.76 0.76 55 1009.1
20260509195521 25 229 1.6 11.3 0.00 0.76 0.76 53 1009.1
20260509194515 25 235 1.6 9.7 0.00 0.76 0.76 58 1009.2
20260509193535 25 226 4.8 11.3 0.00 0.76 0.76 53 1009.2
20260509192520 25 223 1.6 11.3 0.00 0.76 0.76 61 1009.2
20260509191520 23 199 0.0 8.0 0.00 0.76 0.76 58 1009.3
20260509190521 24 210 3.2 8.0 0.00 0.76 0.76 61 1009.4
20260509185521 23 189 4.8 11.3 0.00 0.76 0.76 65 1009.5
20260509184521 23 191 1.6 8.0 0.00 0.76 0.76 65 1009.5
20260509183535 23 207 1.6 9.7 0.00 0.76 0.76 65 1009.6
20260509182540 22 204 3.2 8.0 0.00 0.76 0.76 68 1009.5
20260509181520 22 193 3.2 11.3 0.00 0.76 0.76 65 1009.5
20260509180520 21 207 0.0 6.4 0.00 0.76 0.76 71 1009.5
20260509175541 21 204 1.6 6.4 0.00 0.76 0.76 67 1009.5
20260509174541 21 202 0.0 8.0 0.00 0.76 0.76 69 1009.6
20260509173601 20 202 1.6 11.3 0.00 0.76 0.76 73 1009.9
20260509172515 20 215 3.2 9.7 0.00 0.76 0.76 71 1010.0
20260509171520 20 191 1.6 9.7 0.00 0.76 0.76 76 1010.2
20260509170521 19 201 1.6 6.4 0.00 0.76 0.76 78 1010.3
20260509165521 19 197 1.6 11.3 0.00 0.76 0.76 77 1010.4
20260509164521 18 217 1.6 8.0 0.00 0.76 0.76 80 1010.3
20260509163520 18 216 0.0 8.0 0.00 0.76 0.76 80 1010.4
20260509162515 18 210 1.6 8.0 0.00 0.76 0.76 81 1010.5
20260509161515 17 193 1.6 6.4 0.00 0.76 0.76 81 1010.4
20260509160521 17 193 1.6 9.7 0.00 0.76 0.76 81 1010.5
20260509155521 17 208 1.6 6.4 0.00 0.76 0.76 82 1010.3
20260509154540 16 202 1.6 6.4 0.00 0.76 0.76 82 1010.4
20260509153540 16 227 1.6 6.4 0.00 0.76 0.76 84 1010.3
20260509152520 16 231 0.0 6.4 0.00 0.76 0.76 85 1010.4
20260509151515 16 212 1.6 6.4 0.00 0.76 0.76 87 1010.5
20260509150521 15 211 0.0 8.0 0.00 0.76 0.76 88 1010.2
20260509145521 15 209 0.0 6.4 0.00 0.76 0.76 88 1010.2
20260509144541 15 208 0.0 6.4 0.00 0.76 0.76 88 1010.1
20260509143520 15 215 1.6 6.4 0.00 0.76 0.76 88 1010.1
20260509142541 15 218 0.0 6.4 0.00 0.76 0.76 89 1009.8
20260509141516 15 248 0.0 6.4 0.00 0.76 0.76 91 1009.7
20260509140516 15 250 0.0 6.4 0.00 0.76 0.76 91 1009.6
20260509135541 14 263 0.0 4.8 0.00 0.76 0.76 91 1009.4
20260509134521 14 284 0.0 4.8 0.00 0.76 0.76 91 1009.4
20260509133520 14 0.0 3.2 0.00 0.76 0.76 91 1009.4
20260509132520 14 288 0.0 3.2 0.00 0.76 0.76 91 1009.4
20260509131521 14 288 0.0 3.2 0.00 0.76 0.76 91 1009.5
20260509130515 14 290 0.0 4.8 0.00 0.76 0.76 92 1009.5
20260509125520 14 300 0.0 4.8 0.00 0.76 0.76 92 1009.6
20260509124520 14 318 1.6 6.4 0.00 0.76 0.76 92 1009.5
20260509123520 14 5 0.0 3.2 0.00 0.76 0.76 93 1009.3
20260509122521 13 0.0 3.2 0.00 0.76 0.76 93 1009.3
20260509121600 13 0.0 0.0 0.00 0.76 0.76 94 1009.1
20260509120520 13 0.0 0.0 0.00 0.76 0.76 94 1008.9
20260509115515 13 0.0 0.0 0.00 0.76 0.76 94 1008.8
20260509114520 13 0.0 0.0 0.00 0.76 0.76 94 1008.8
20260509113520 13 0.0 0.0 0.00 0.76 0.76 94 1008.8
20260509112601 13 0.0 0.0 0.00 0.76 0.76 94 1008.8
20260509111521 13 0.0 0.0 0.00 0.76 0.76 94 1008.9
20260509110520 13 0.0 0.0 0.00 0.76 0.76 94 1008.9
20260509105515 13 0.0 0.0 0.00 0.76 0.76 94 1008.7
20260509104515 13 11 0.0 3.2 0.00 0.76 0.76 94 1008.7
20260509103541 13 10 0.0 3.2 0.00 0.76 0.76 94 1008.6
20260509102540 13 28 0.0 3.2 0.00 0.76 0.76 94 1008.6
20260509101520 13 0.0 0.0 0.00 0.76 0.76 94 1008.5
20260509100520 13 0.0 3.2 0.00 0.76 0.76 94 1008.6
20260509095520 13 0.0 1.6 0.00 0.76 0.76 94 1008.7
20260509094515 13 0.0 0.0 0.00 0.76 0.76 94 1008.3
20260509093520 13 0.0 0.0 0.00 0.76 0.76 93 1008.2
20260509092520 12 0.0 0.0 0.00 0.76 0.76 93 1008.1
20260509091520 12 0.0 0.0 0.00 0.76 0.76 93 1007.9
20260509090520 12 0.0 0.0 0.00 0.76 0.76 93 1008.0
20260509085520 13 0.0 0.0 0.03 0.76 0.76 93 1007.8
20260509084520 13 0.0 0.0 0.03 0.76 0.76 93 1007.9
20260509083515 13 28 0.0 1.6 0.03 0.76 0.76 93 1007.7
20260509082520 13 0.0 0.0 0.03 0.76 0.76 93 1007.8
20260509081520 13 0.0 3.2 0.10 0.76 0.76 93 1007.7
20260509080541 13 0.0 0.0 0.15 0.76 0.76 92 1007.8
20260509075520 13 0.0 0.0 0.15 0.74 0.71 92 1007.7
20260509074521 13 0.0 0.0 0.30 0.74 0.71 92 1007.7
20260509073516 13 0.0 0.0 0.38 0.74 0.71 92 1007.8
20260509072516 13 28 0.0 3.2 0.48 0.74 0.71 92 1008.0
20260509071520 13 18 0.0 4.8 0.58 0.66 0.66 92 1007.4
20260509070520 13 323 0.0 3.2 0.61 0.61 0.61 91 1007.8
20260509065520 13 0.0 0.0 0.53 0.53 0.56 91 1008.6
20260509064520 13 0.0 3.2 0.43 0.43 0.43 91 1008.9
20260509063520 13 322 0.0 3.2 0.33 0.33 0.33 90 1009.1
20260509062522 13 321 0.0 4.8 0.25 0.25 0.25 89 1009.3
20260509061520 14 327 0.0 4.8 0.08 0.08 0.08 88 1009.3
20260509060520 14 335 0.0 4.8 0.00 0.00 0.00 86 1009.5
20260509055520 15 336 0.0 3.2 0.00 0.00 0.00 84 1009.5
20260509054520 15 336 1.6 11.3 0.00 0.00 0.00 83 1010.0
20260509053517 15 331 1.6 16.1 0.00 0.00 0.00 82 1009.9
20260509052520 15 332 1.6 12.9 0.00 0.00 0.00 82 1009.4
20260509051523 16 334 1.6 9.7 0.00 0.00 0.00 82 1009.5
20260509050522 16 344 1.6 12.9 0.00 0.00 0.00 80 1009.1
20260509045515 16 332 4.8 12.9 0.00 0.00 0.00 78 1009.0
20260509044521 17 315 1.6 4.8 0.00 0.00 0.00 73 1008.7
20260509043521 17 309 0.0 3.2 0.00 0.00 0.00 69 1008.4
20260509042541 17 309 0.0 4.8 0.00 0.00 0.00 66 1008.4
20260509041521 17 308 0.0 4.8 0.00 0.00 0.00 68 1008.2
20260509040521 17 187 1.6 6.4 0.00 0.00 0.00 66 1008.3
20260509035516 17 0.0 4.8 0.00 0.00 0.00 64 1008.0
20260509034516 17 165 0.0 3.2 0.00 0.00 0.00 65 1007.9
20260509033521 17 165 0.0 3.2 0.00 0.00 0.00 66 1007.8
20260509032521 17 165 0.0 3.2 0.00 0.00 0.00 67 1007.9
20260509031521 17 165 0.0 3.2 0.00 0.00 0.00 65 1008.1
20260509030539 18 165 0.0 3.2 0.00 0.00 0.00 63 1008.3
20260509025521 18 165 0.0 6.4 0.00 0.00 0.00 63 1008.5
20260509024516 18 165 0.0 4.8 0.00 0.00 0.00 64 1008.4
20260509023521 17 163 0.0 4.8 0.00 0.00 0.00 65 1008.3
20260509022521 17 160 0.0 3.2 0.00 0.00 0.00 66 1008.2
20260509021521 17 0.0 0.0 0.00 0.00 0.00 70 1008.1
20260509020521 16 0.0 0.0 0.00 0.00 0.00 73 1008.0
20260509015521 17 0.0 0.0 0.00 0.00 0.00 70 1007.8
20260509014521 17 0.0 0.0 0.00 0.00 0.00 68 1007.9
20260509013516 18 0.0 0.0 0.00 0.00 0.00 64 1007.9
20260509012521 18 160 0.0 3.2 0.00 0.00 0.00 63 1007.7
20260509011521 18 159 0.0 6.4 0.00 0.00 0.00 61 1007.7
20260509010521 19 169 0.0 3.2 0.00 0.00 0.00 59 1007.9
20260509005521 19 169 0.0 3.2 0.00 0.00 0.00 59 1007.9
20260509004521 20 167 1.6 6.4 0.00 0.00 0.00 57 1007.9